Hulianwang W. Digui 16-08

operational
NORAD ID: 67066 Int'l Des: 2025-295 Owner: ZXW Country: CN Constellation: xingwang
LEOCIRCULAR

Hulianwang W. Digui 16-08について

説明を読み込み中...

リアルタイム位置

3D地球を読み込み中...

次回通過

高度履歴

Altitude vs Time

uPlot chart will show altitude changes over time

軌道要素

1 67066U 25295H 25346.21273250 -.00000101 00000-0 24354-4 0 9995
2 67066 50.0029 14.4606 0011491 248.6611 111.3077 14.26429655 46
Epoch: Dec 12, 2025 • Age: 51 hours

現在のステータス

高度 817.0 km
速度 7.45 km/s
衛星直下点 47.81°N, 129.14°W
打ち上げ日 Dec 11, 2025
運用期間 3 days
タイプ other

技術仕様

分類 Payload
質量 800.00 kg
乾燥質量 800.00 kg
総質量 800.00 kg
長さ 3.00 m
直径 1.00 m
スパン 10.00 m
形状 Box + 2 Pan
製造者 YINNT
バスタイプ Guowang Y
フェーズステータス In Orbit
所有者/国 ZXW/CN

大規模コンステレーション

Loading constellations...